Douglas, WY

11:17 AM MDT on July 24, 2016 (GMT -0600)
Converse County

Weather History for KDGW - December, 2013

Change the Weather History Date:

Monday, December 2, 2013

  Actual Average Record
Temperature  
Mean Temperature 50 °F 26 °F  
Max Temperature 57 °F 39 °F 60 °F (2012)
Min Temperature 43 °F 13 °F -7 °F (2011)
Degree Days  
Heating Degree Days 15 39  
Month to date heating degree days 42 78  
Since 1 July heating degree days 1779 1900  
Cooling Degree Days 0 0  
Month to date cooling degree days 0 0  
Year to date cooling degree days 739 486  
Moisture  
Dew Point 25 °F    
Average Humidity 40    
Maximum Humidity 53    
Minimum Humidity 27    
Precipitation  
Precipitation 0.00 in 0.01 in 0.09 in (2008)
Month to date precipitation 0.00 0.03  
Year to date precipitation 9.42 13.02  
Sea Level Pressure  
Sea Level Pressure 29.52 in    
Wind  
Wind Speed 26 mph (West)    
Max Wind Speed 39 mph    
Max Gust Speed 49 mph    
Visibility 10 miles    
Events      
T = Trace of Precipitation, MM = Missing Value Source: NWS Daily Summary

Daily Weather History Graph

Daily Weather History Graph

Search for Another Location

Airport or City:

Trip Planner

Search our weather history database for the weather conditions in past years. The results will help you decide how hot, cold, wet, or windy it might be!

Date:

Astronomy

Dec. 02, 2013 Rise Set
Actual Time 7:13 AM MST 4:28 PM MST
Civil Twilight 6:42 AM MST 4:59 PM MST
Nautical Twilight 6:06 AM MST 5:35 PM MST
Astronomical Twilight 5:32 AM MST 6:09 PM MST
Moon 6:40 AM MST (12/2) 4:34 PM MST (12/2)
Length of Visible Light 10h 17m
Length of Day
9h 14m
Waning Crescent, 0% of the Moon is Illuminated
Dec 2
Waning Crescent
Dec 2
New
Dec 9
First Quarter
Dec 17
Full
Dec 25
Last Quarter

Hourly Weather History & Observations

Time (MST) Temp. Windchill Dew Point Humidity Pressure Visibility Wind Dir Wind Speed Gust Speed Precip Events Conditions
12:53 AM 45.0 °F 37.4 °F 26.1 °F 48% 29.70 in 10.0 mi West 18.4 mph - N/A   Clear
1:53 AM 46.0 °F 38.8 °F 27.0 °F 47% 29.68 in 10.0 mi West 18.4 mph 26.5 mph N/A   Clear
2:53 AM 45.0 °F 36.2 °F 28.0 °F 52% 29.67 in 10.0 mi WSW 24.2 mph 35.7 mph N/A   Partly Cloudy
3:53 AM 45.0 °F 36.4 °F 27.0 °F 49% 29.63 in 10.0 mi WSW 23.0 mph 33.4 mph N/A   Clear
4:53 AM 45.0 °F 36.4 °F 27.0 °F 49% 29.62 in 10.0 mi West 23.0 mph 35.7 mph N/A   Clear
5:53 AM 45.0 °F 36.2 °F 27.0 °F 49% 29.58 in 10.0 mi West 24.2 mph 33.4 mph N/A   Clear
6:53 AM 46.0 °F 36.5 °F 26.1 °F 46% 29.56 in 10.0 mi West 31.1 mph 40.3 mph N/A   Clear
7:53 AM 46.0 °F 37.2 °F 26.1 °F 46% 29.56 in 10.0 mi West 26.5 mph 32.2 mph N/A   Clear
8:53 AM 48.0 °F - 26.1 °F 42% 29.55 in 10.0 mi West 34.5 mph 43.7 mph N/A   Clear
9:53 AM 50.0 °F - 26.1 °F 39% 29.54 in 10.0 mi West 28.8 mph 40.3 mph N/A   Clear
10:53 AM 53.1 °F - 25.0 °F 34% 29.52 in 10.0 mi West 33.4 mph 41.4 mph N/A   Clear
11:53 AM 55.9 °F - 24.1 °F 29% 29.48 in 10.0 mi West 33.4 mph 43.7 mph N/A   Clear
12:53 PM 55.9 °F - 23.0 °F 28% 29.47 in 10.0 mi West 34.5 mph 47.2 mph N/A   Clear
1:53 PM 55.0 °F - 25.0 °F 31% 29.47 in 10.0 mi WSW 29.9 mph 40.3 mph N/A   Clear
2:53 PM 52.0 °F - 25.0 °F 35% 29.46 in 10.0 mi West 27.6 mph 38.0 mph N/A   Clear
3:53 PM 50.0 °F - 24.1 °F 36% 29.47 in 10.0 mi West 19.6 mph 38.0 mph N/A   Clear
4:53 PM 48.9 °F - 24.1 °F 38% 29.46 in 10.0 mi West 25.3 mph 36.8 mph N/A   Clear
5:53 PM 48.9 °F - 23.0 °F 36% 29.45 in 10.0 mi West 21.9 mph 36.8 mph N/A   Partly Cloudy
6:53 PM 48.0 °F - 24.1 °F 39% 29.43 in 10.0 mi West 28.8 mph 43.7 mph N/A   Clear
7:53 PM 46.9 °F - 24.1 °F 41% 29.44 in 10.0 mi West 24.2 mph 35.7 mph N/A   Clear
8:53 PM 46.0 °F 37.8 °F 24.1 °F 42% 29.44 in 10.0 mi West 23.0 mph 32.2 mph N/A   Clear
9:53 PM 45.0 °F 36.0 °F 25.0 °F 46% 29.42 in 10.0 mi West 25.3 mph 32.2 mph N/A   Clear
10:53 PM 44.1 °F 34.8 °F 25.0 °F 47% 29.42 in 10.0 mi West 25.3 mph 31.1 mph N/A   Clear
11:53 PM 43.0 °F 34.0 °F 26.1 °F 51% 29.40 in 10.0 mi West 21.9 mph 28.8 mph N/A   Clear